This demonstration page uses our WeatherBlox Daily Observations layout. Learn more.

Left ArrowRight Arrow

Hourly Observations for June 28, 2018

Temp ( °F °C ) Dew Point ( °F °C ) Humidity (%) Winds ( mph kmh ) Pressure ( in mb ) Visibility ( mi km ) Precip ( " mm )
12:57 am 00:57 Clear 74 23.3 72 22.2 94 94 E 9 15 29.81 1009 10 16 0.00 0.00
1:57 am 01:57 Clear 74 23.3 72 22.2 94 94 E 8 13 29.79 1009 10 16 0.00 0.00
2:57 am 02:57 Clear 73 22.8 72 22.2 96 96 E 8 13 29.78 1008 10 16 0.00 0.00
3:40 am 03:40 Partly Cloudy 73 23 N/A N/A ESE 5 7 29.77 1008 7 11 0.00 0.00
3:49 am 03:49 Mostly Cloudy 73 23 N/A N/A E 7 11 29.77 1008 7 11 0.00 0.00
3:57 am 03:57 Cloudy 72 22.2 71 21.7 97 97 E 7 11 29.78 1008 7 11 0.00 0.00
4:23 am 04:23 Cloudy with Mist and Fog 72 22 72 22 100 100 E 8 13 29.74 1007 6 10 0.00 0.00
4:57 am 04:57 Cloudy with Mist and Fog 72 22.2 72 22.2 100 100 ESE 9 15 29.75 1007 4 6 0.00 0.00
5:31 am 05:31 Cloudy with Mist and Fog 72 22 72 22 100 100 ESE 9 15 29.74 1007 2 3 0.00 0.00
5:48 am 05:48 Cloudy with Mist and Fog 72 22 72 22 100 100 ESE 8 13 29.74 1007 2 3 0.00 0.00
5:57 am 05:57 Cloudy with Mist and Fog 72 22.2 72 22.2 100 100 ESE 9 15 29.75 1007 1 2 0.00 0.00
6:03 am 06:03 Cloudy with Fog 72 22 72 22 100 100 SE 10 17 29.71 1006 1 1 0.00 0.00
6:21 am 06:21 Cloudy with Fog 72 22 72 22 100 100 SE 9 15 29.71 1006 0 0 0.00 0.00
6:33 am 06:33 Cloudy with Fog 72 22 72 22 100 100 SE 9 15 29.71 1006 1 1 0.00 0.00
6:57 am 06:57 Cloudy with Fog 72 22.2 72 22.2 100 100 SE 7 11 29.73 1007 1 1 0.00 0.00
7:15 am 07:15 Cloudy with Mist and Fog 73 23 72 22 94 94 ESE 6 9 29.71 1006 1 1 0.00 0.00
7:21 am 07:21 Cloudy with Mist and Fog 73 23 72 22 94 94 ESE 5 7 29.71 1006 1 2 0.00 0.00
7:44 am 07:44 Cloudy with Mist and Fog 73 23 72 22 94 94 ESE 8 13 29.71 1006 2 3 0.00 0.00
7:57 am 07:57 Cloudy with Mist and Fog 73 22.8 72 22.2 96 96 ESE 8 13 29.73 1007 3 5 0.00 0.00
8:57 am 08:57 Cloudy with Mist and Fog 75 23.9 73 22.8 94 94 NE 13 20 29.75 1008 6 10 0.00 0.00
9:19 am 09:19 Mostly Cloudy 75 24 72 22 89 89 E 9 15 29.74 1007 10 16 0.00 0.00
9:36 am 09:36 Mostly Cloudy 77 25 73 23 89 89 E 12 19 29.71 1006 10 16 0.00 0.00
9:52 am 09:52 Partly Cloudy 79 26 73 23 84 84 E 13 20 29.68 1005 10 16 0.00 0.00
9:57 am 09:57 Partly Cloudy 78 25.6 73 22.8 85 85 E 12 19 29.74 1007 9 14 0.00 0.00
10:44 am 10:44 Mostly Cloudy 79 26 73 23 84 84 E 12 19 29.71 1006 10 16 0.00 0.00
10:57 am 10:57 Mostly Cloudy 80 26.7 73 22.8 79 79 ENE 13 20 29.76 1008 10 16 0.00 0.00
11:27 am 11:27 Mostly Cloudy 81 27 73 23 79 79 ENE 13 20 29.71 1006 10 16 0.00 0.00
11:57 am 11:57 Mostly Cloudy 82 27.8 73 22.8 74 74 E 15 24 29.78 1008 10 16 0.00 0.00
12:46 pm 12:46 Partly Cloudy 84 29 73 23 70 70 E 17 28 29.71 1006 9 14 0.00 0.00
12:57 pm 12:57 Mostly Sunny 84 28.9 74 23.3 72 72 E 18 30 29.76 1008 10 16 0.00 0.00
1:57 pm 13:57 Sunny 86 30 76 24.4 72 72 ESE 23 37 29.72 1006 9 14 0.00 0.00
2:57 pm 14:57 Sunny 90 32.2 76 24.4 63 63 ESE 22 35 29.68 1005 10 16 0.00 0.00
3:57 pm 15:57 Sunny 91 32.8 77 25 64 64 SE 17 28 29.66 1005 7 11 0.00 0.00
4:57 pm 16:57 Sunny 93 33.9 79 26.1 64 64 SE 17 28 29.64 1004 10 16 0.00 0.00
5:57 pm 17:57 Sunny 96 35.6 70 21.1 43 43 S 15 24 29.63 1003 10 16 0.00 0.00
6:57 pm 18:57 Sunny 94 34.4 68 20 43 43 S 15 24 29.62 1003 10 16 0.00 0.00
7:57 pm 19:57 Sunny 90 32.2 65 18.3 44 44 S 15 24 29.62 1003 10 16 0.00 0.00
8:57 pm 20:57 Sunny 84 28.9 64 17.8 51 51 S 13 20 29.64 1004 10 16 0.00 0.00
9:57 pm 21:57 Clear 80 26.7 64 17.8 58 58 S 13 20 29.65 1004 10 16 0.00 0.00
10:57 pm 22:57 Clear 81 27.2 64 17.8 57 57 S 17 28 29.64 1004 10 16 0.00 0.00
11:57 pm 23:57 Clear 82 27.8 63 17.2 53 53 S 17 28 29.65 1004 10 16 0.00 0.00

Powered by AerisWeather